Weather History for Oscoda, MI

Change the Weather History Date:

Tuesday, February 11, 2014

  Actual Average Record
Temperature  
Mean Temperature 4 °F -  
Max Temperature 14 °F 29 °F 60 °F (1999)
Min Temperature -7 °F 14 °F -13 °F (2003)
Degree Days  
Heating Degree Days 62    
Moisture  
Dew Point -5 °F    
Average Humidity 65    
Maximum Humidity 81    
Minimum Humidity 47    
Precipitation  
Precipitation 0.00 in - - ()
Sea Level Pressure  
Sea Level Pressure 30.42 in    
Wind  
Wind Speed 6 mph (WSW)    
Max Wind Speed 12 mph    
Max Gust Speed 16 mph    
Visibility 10 miles    
Events      
Averages and records for this station are not official NWS values.
T = Trace of Precipitation, MM = Missing Value Source: NWS Daily Summary

Daily Weather History Graph

Daily Weather History Graph

Search for Another Location

Airport:

Trip Planner

Search our weather history database for the weather conditions in past years. The results will help you decide how hot, cold, wet, or windy it might be!

Date:

Astronomy

Feb. 11, 2014 Rise Set
Actual Time 7:39 AM EST 5:56 PM EST
Civil Twilight 7:09 AM EST 6:27 PM EST
Nautical Twilight 6:34 AM EST 7:01 PM EST
Astronomical Twilight 6:01 AM EST 7:35 PM EST
Moon 3:13 PM EST (2/11) 5:18 AM EST (2/11)
Length of Visible Light 11h 18m
Length of Day
10h 17m
Waxing Gibbous, 90% of the Moon is Illuminated
Feb 11
Waxing Gibbous
Feb 14
Full
Feb 22
Last Quarter
Mar 1
New
Mar 8
First Quarter

Hourly Weather History & Observations

Time (EST) Temp. Windchill Dew Point Humidity Pressure Visibility Wind Dir Wind Speed Gust Speed Precip Events Conditions
12:14 AM 7.7 °F -4.8 °F -3.1 °F 61% 30.36 in 10.0 mi NW 8.1 mph - N/A   Overcast
12:33 AM 7.2 °F -7.3 °F -4.2 °F 60% 30.36 in 10.0 mi NW 10.4 mph 16.1 mph N/A   Overcast
12:53 AM 6.8 °F -8.6 °F -4.0 °F 61% 30.36 in 10.0 mi NW 11.5 mph - N/A   Mostly Cloudy
1:14 AM 6.4 °F -8.2 °F -4.0 °F 62% 30.36 in 10.0 mi NNW 10.4 mph - N/A   Mostly Cloudy
1:33 AM 5.2 °F -1.9 °F -4.5 °F 64% 30.36 in 10.0 mi North 3.5 mph - N/A   Scattered Clouds
1:53 AM 4.5 °F - -4.5 °F 66% 30.37 in 10.0 mi Calm Calm - N/A   Clear
2:14 AM 2.3 °F - -6.3 °F 67% 30.38 in 10.0 mi Calm Calm - N/A   Clear
2:33 AM -2.0 °F -10.1 °F -8.5 °F 74% 30.39 in 10.0 mi WNW 3.5 mph - N/A   Clear
2:53 AM -4.0 °F -12.4 °F -10.5 °F 74% 30.39 in 10.0 mi WNW 3.5 mph - N/A   Clear
3:14 AM -2.2 °F -10.4 °F -8.3 °F 75% 30.39 in 10.0 mi West 3.5 mph - N/A   Clear
3:33 AM -4.4 °F -15.0 °F -10.5 °F 75% 30.39 in 10.0 mi WNW 4.6 mph - N/A   Clear
3:53 AM -2.4 °F -15.8 °F -8.3 °F 76% 30.39 in 10.0 mi WNW 6.9 mph - N/A   Clear
4:14 AM -1.3 °F -15.7 °F -7.6 °F 75% 30.39 in 10.0 mi WNW 8.1 mph - N/A   Clear
4:33 AM -2.2 °F -14.2 °F -8.3 °F 75% 30.40 in 10.0 mi WNW 5.8 mph - N/A   Clear
4:53 AM -2.2 °F -12.5 °F -8.1 °F 76% 30.40 in 10.0 mi NW 4.6 mph - N/A   Clear
5:14 AM -2.4 °F -10.6 °F -8.0 °F 77% 30.41 in 10.0 mi NW 3.5 mph - N/A   Clear
5:33 AM -4.0 °F -19.0 °F -8.9 °F 80% 30.41 in 10.0 mi NW 8.1 mph - N/A   Clear
5:53 AM -3.5 °F -18.4 °F -8.1 °F 80% 30.42 in 10.0 mi WNW 8.1 mph - N/A   Clear
6:14 AM -4.2 °F -18.0 °F -8.7 °F 81% 30.43 in 10.0 mi WNW 6.9 mph - N/A   Clear
6:33 AM -4.9 °F -17.4 °F -9.4 °F 81% 30.43 in 10.0 mi WNW 5.8 mph - N/A   Clear
6:53 AM -5.4 °F -18.0 °F -10.3 °F 80% 30.43 in 10.0 mi WNW 5.8 mph - N/A   Clear
7:14 AM -7.2 °F -16.1 °F -12.5 °F 78% 30.44 in 10.0 mi West 3.5 mph - N/A   Clear
7:33 AM -7.1 °F -18.1 °F -12.1 °F 79% 30.44 in 10.0 mi NW 4.6 mph - N/A   Clear
7:53 AM -6.0 °F -16.9 °F -11.4 °F 77% 30.45 in 10.0 mi NW 4.6 mph - N/A   Clear
8:14 AM -6.2 °F -14.9 °F -12.1 °F 75% 30.46 in 10.0 mi WNW 3.5 mph - N/A   Clear
8:33 AM -4.5 °F - -10.3 °F 76% 30.46 in 10.0 mi Calm Calm - N/A   Clear
8:54 AM -3.3 °F - -9.6 °F 74% 30.47 in 10.0 mi Calm Calm - N/A   Clear
9:13 AM 0.5 °F -12.3 °F -7.6 °F 69% 30.47 in 10.0 mi NW 6.9 mph - N/A   Clear
9:33 AM 2.7 °F -8.4 °F -6.5 °F 66% 30.47 in 10.0 mi WNW 5.8 mph - N/A   Clear
9:54 AM 4.6 °F -8.5 °F -5.8 °F 62% 30.47 in 10.0 mi WNW 8.1 mph - N/A   Clear
10:13 AM 5.9 °F -7.0 °F -5.6 °F 59% 30.47 in 10.0 mi WNW 8.1 mph - N/A   Clear
10:33 AM 6.6 °F -7.1 °F -5.3 °F 58% 30.47 in 10.0 mi NW 9.2 mph - N/A   Clear
10:54 AM 7.5 °F -3.9 °F -5.3 °F 56% 30.46 in 10.0 mi NW 6.9 mph - N/A   Clear
11:13 AM 8.2 °F -1.8 °F -5.3 °F 54% 30.47 in 10.0 mi NNW 5.8 mph - N/A   Clear
11:33 AM 8.8 °F 2.2 °F -5.1 °F 53% 30.47 in 10.0 mi NW 3.5 mph - N/A   Clear
11:54 AM 9.9 °F - -5.6 °F 50% 30.47 in 10.0 mi Calm Calm - N/A   Clear
12:13 PM 10.6 °F 1.0 °F -5.3 °F 49% 30.46 in 10.0 mi West 5.8 mph - N/A   Clear
12:33 PM 12.0 °F - -4.9 °F 47% 30.46 in 10.0 mi Calm Calm - N/A   Clear
12:54 PM 11.3 °F 3.3 °F -3.8 °F 51% 30.46 in 10.0 mi SSW 4.6 mph - N/A   Clear
1:13 PM 12.9 °F 5.2 °F -3.5 °F 48% 30.45 in 10.0 mi SW 4.6 mph - N/A   Clear
1:33 PM 12.4 °F 6.3 °F -4.5 °F 47% 30.45 in 10.0 mi South 3.5 mph - N/A   Clear
1:53 PM 13.3 °F 4.2 °F -2.9 °F 49% 30.44 in 10.0 mi NNE 5.8 mph - N/A   Clear
2:13 PM 13.1 °F - -3.3 °F 48% 30.43 in 10.0 mi Calm Calm - N/A   Clear
2:33 PM 13.8 °F 8.0 °F -3.1 °F 47% 30.43 in 10.0 mi East 3.5 mph - N/A   Clear
2:53 PM 13.6 °F 6.0 °F -1.5 °F 51% 30.43 in 10.0 mi East 4.6 mph - N/A   Clear
3:13 PM 13.5 °F 3.3 °F -0.6 °F 54% 30.42 in 7.0 mi ESE 6.9 mph - N/A   Clear
3:34 PM 13.3 °F 3.0 °F 0.7 °F 57% 30.43 in 10.0 mi East 6.9 mph - N/A   Clear
3:53 PM 14.0 °F 6.5 °F 1.4 °F 57% 30.43 in 10.0 mi East 4.6 mph - N/A   Clear
4:13 PM 14.5 °F 7.1 °F 0.7 °F 54% 30.43 in 10.0 mi ESE 4.6 mph - N/A   Clear
4:34 PM 14.7 °F 2.9 °F 1.4 °F 56% 30.42 in 10.0 mi SSE 9.2 mph - N/A   Clear
4:53 PM 13.8 °F 1.8 °F 0.7 °F 56% 30.42 in 10.0 mi South 9.2 mph - N/A   Clear
5:13 PM 13.1 °F 0.9 °F 0.5 °F 57% 30.43 in 10.0 mi South 9.2 mph - N/A   Clear
5:34 PM 12.2 °F 1.7 °F 0.3 °F 59% 30.42 in 10.0 mi South 6.9 mph - N/A   Clear
5:53 PM 11.8 °F 2.5 °F 0.1 °F 59% 30.43 in 10.0 mi South 5.8 mph - N/A   Clear
6:13 PM 10.8 °F 0.0 °F -0.0 °F 62% 30.43 in 10.0 mi South 6.9 mph - N/A   Clear
6:34 PM 9.7 °F -2.4 °F -0.6 °F 63% 30.43 in 10.0 mi South 8.1 mph - N/A   Clear
6:53 PM 9.1 °F -3.0 °F -1.8 °F 61% 30.43 in 10.0 mi SSW 8.1 mph - N/A   Clear
7:13 PM 8.1 °F -3.2 °F -2.2 °F 63% 30.43 in 10.0 mi SSW 6.9 mph - N/A   Clear
7:34 PM 7.5 °F -1.1 °F -2.0 °F 65% 30.43 in 10.0 mi SSW 4.6 mph - N/A   Clear
7:53 PM 5.2 °F -5.4 °F -3.3 °F 68% 30.43 in 10.0 mi SW 5.8 mph - N/A   Clear
8:13 PM 5.5 °F -3.4 °F -1.8 °F 72% 30.43 in 10.0 mi SSW 4.6 mph - N/A   Clear
8:34 PM 5.9 °F -5.8 °F -1.3 °F 72% 30.42 in 10.0 mi SSW 6.9 mph - N/A   Clear
8:53 PM 5.9 °F -4.5 °F -1.3 °F 72% 30.42 in 10.0 mi SSW 5.8 mph - N/A   Clear
9:13 PM 3.4 °F -10.0 °F -3.3 °F 74% 30.43 in 10.0 mi SW 8.1 mph - N/A   Clear
9:34 PM 2.8 °F -8.2 °F -4.0 °F 73% 30.43 in 10.0 mi SSW 5.8 mph - N/A   Clear
9:53 PM 4.5 °F -7.6 °F -4.0 °F 68% 30.42 in 10.0 mi SSW 6.9 mph - N/A   Clear
10:13 PM 2.5 °F -8.6 °F -4.7 °F 72% 30.42 in 10.0 mi SSW 5.8 mph - N/A   Clear
10:34 PM 2.8 °F -6.6 °F -4.9 °F 70% 30.42 in 10.0 mi SSW 4.6 mph - N/A   Clear
10:53 PM 0.1 °F -9.7 °F -6.7 °F 73% 30.42 in 10.0 mi SW 4.6 mph - N/A   Clear
11:13 PM 2.5 °F -10.0 °F -4.7 °F 72% 30.41 in 10.0 mi SSW 6.9 mph - N/A   Clear
11:34 PM 1.9 °F -5.6 °F -5.3 °F 72% 30.40 in 10.0 mi SSW 3.5 mph - N/A   Clear
11:53 PM 1.2 °F -11.5 °F -5.1 °F 75% 30.39 in 10.0 mi SW 6.9 mph - N/A   Clear